This is the latest recevied weather packets stored in our database for station/object KAGO. If no packets are shown the sender has not sent any weather packets the latest 10 day(s).
| Time | Temp. | Humidity | Pressure | Rain* | Wind** | Luminosity | Snow |
|---|---|---|---|---|---|---|---|
| 1777947804 | 20° C | 64% | 1008.5 hPa | - | - | - | - |
| 1777947205 | 18.89° C | 68% | 1008.5 hPa | - | - | - | - |
| 1777946603 | 18.89° C | 68% | 1008.5 hPa | - | - | - | - |
| 1777946003 | 20° C | 60% | 1008.1 hPa | - | - | - | - |
| 1777945405 | 20° C | 60% | 1008.1 hPa | - | - | - | - |
| 1777944802 | 21.67° C | 53% | 1008.1 hPa | - | - | - | - |
| 1777944205 | 21.67° C | 53% | 1008.1 hPa | - | - | - | - |
| 1777943603 | 21.67° C | 53% | 1008.1 hPa | - | - | - | - |
| 1777943009 | 21.67° C | 53% | 1008.1 hPa | - | - | - | - |
| 1777942405 | 22.78° C | 49% | 1008.5 hPa | - | - | - | - |
| 1777941801 | 22.78° C | 49% | 1008.5 hPa | - | - | - | - |
| 1777941325 | 23.89° C | 47% | 1008.8 hPa | - | - | - | - |
| 1777940604 | 23.89° C | 47% | 1008.8 hPa | - | - | - | - |
| 1777940004 | 25° C | 44% | 1008.5 hPa | - | - | - | - |
| 1777939404 | 25° C | 44% | 1008.5 hPa | - | - | - | - |
| 1777938804 | 25° C | 44% | 1008.8 hPa | - | - | - | - |
| 1777938204 | 25° C | 44% | 1008.8 hPa | - | - | - | - |
| 1777937604 | 25° C | 44% | 1009.1 hPa | - | - | - | - |
| 1777937006 | 25° C | 44% | 1009.1 hPa | - | - | - | - |
| 1777936405 | 25.56° C | 41% | 1009.5 hPa | - | - | - | - |
| 1777935804 | 25.56° C | 41% | 1009.5 hPa | - | - | - | - |
| 1777935205 | 25.56° C | 41% | 1009.5 hPa | - | - | - | - |
| 1777934604 | 25.56° C | 41% | 1009.5 hPa | - | - | - | - |
| 1777934125 | 25.56° C | 41% | 1009.5 hPa | - | - | - | - |
| 1777933406 | 25.56° C | 41% | 1009.5 hPa | - | - | - | - |
* Rain since midnight (hover to see other rain measurements)
** Current wind speed in m/s (hover to see current wind gust speed)